Home > Weather > Chester > Past weeks

Flag for United Kingdom Past Weather in Chester, England, United Kingdom — Yesterday and Last 2 Weeks

Now
44 °F

Fog.


Feels Like: 42 °F
Forecast: 45 / 66 °F
Wind: 3 mph from Southeast

Location: Hawarden

Current Time: May 27, 2016 at 5:50:27 AM

Latest Report: May 27, 2016 at 5:00 AM


Visibility: 2 mi

Pressure: 30.05 "Hg

Humidity: 100%

Dew Point: 44 °F

Location of ChesterLocation

Past Weather in Chester — Graph

°F

Chester Temperature Yesterday

Maximum temperature yesterday: 56 °F (at 3:00 PM)
Minimum temperature yesterday: 48 °F (at 2:00 AM)
Average temperature yesterday: 52 °F

High & Low Weather Summary for the Past Weeks

 TemperatureHumidityPressure
High73 °F (May 12, 4:00 PM)100% (May 18, 7:00 AM)30.25 "Hg (May 18, 7:00 AM)
Low36 °F (May 15, 5:00 AM)39% (May 24, 3:00 PM)29.57 "Hg (May 18, 7:00 AM)
Average53 °F76%29.95 "Hg
* Reported May 12 4:00 AM — May 27 4:00 AM, Chester, Weather by CustomWeather, © 2016

Note: Actual official high and low records may vary slightly from our data, if they occured in-between our weather recording intervals... More about our weather records

Advertising

Chester Weather History for the Previous 24 Hours

Scroll right to see more
 ConditionsComfort  
Time TempWeatherWind HumidityBarometerVisibility
4:00 AM
Fri, May 27
46 °FFog.No wind100%30.05 "Hg1 mi
3:00 AM48 °FFog.1 mph100%30.05 "Hg3 mi
2:00 AM50 °FFog.1 mph100%30.05 "Hg6 mi
1:00 AM52 °FCool.1 mph99%30.05 "Hg9 mi
12:00 AM52 °FCool.1 mph96%30.05 "Hg13 mi
11:00 PM
Thu, May 26
53 °FCool.2 mph93%30.04 "Hg19 mi
10:00 PM54 °FCool.2 mph92%30.03 "Hg25 mi
9:00 PM54 °FCool.2 mph87%30.03 "Hg28 mi
8:00 PM55 °FCool.5 mph86%30.02 "Hg25 mi
7:00 PM55 °FCool.5 mph85%30.01 "Hg31 mi
6:00 PM56 °FCool.3 mph83%30.02 "Hg19 mi
5:00 PM55 °FCool.5 mph81%30.02 "Hg25 mi
4:00 PM55 °FCool.7 mph80%30.03 "Hg28 mi
3:00 PM56 °FCool.7 mph74%30.02 "Hg25 mi
2:00 PM54 °FCool.6 mph90%30.03 "Hg25 mi
1:00 PM52 °FSmoke.5 mph94%30.03 "Hg4 mi
12:00 PM52 °FCool.6 mph94%30.03 "Hg7 mi
11:00 AM52 °FCool.6 mph95%30.03 "Hg13 mi
10:00 AM51 °FCool.6 mph99%30.02 "Hg3 mi
9:00 AM51 °FDrizzle. Cloudy.5 mph98%30.03 "Hg7 mi
8:00 AM50 °FDrizzle. Cloudy.3 mph100%30.02 "Hg4 mi
7:00 AM50 °FCool.5 mph97%30.02 "Hg19 mi
6:00 AM50 °FCool.3 mph100%30.02 "Hg16 mi
5:00 AM49 °FCool.2 mph100%30.02 "Hg11 mi
Weather by CustomWeather, © 2016

See weather overviewHow to use our weather pages